Weather in Prestatyn

United Kingdom     53°19′55″N   3°23′55″W
temp.,
°C
wind,
m/s
gust,
m/s
humid.,
%
clouds,
%
prec.,
mm/h
press.,
hPa
HPBL,
m
15 april, thu
thu1501:00+2sse23965 0.0 103558
04:00+1s33935 0.0 103454
07:000sse34925 0.0 103573
10:00+7e23552 0.0 1035846
13:00+10ene33380 0.0 10341377
16:00+10e33405 0.0 10331481
19:00+8ese24593 0.0 1032175
22:00+2s22774 0.0 103326
16 april, fri
fri1601:00+2s32775 0.0 103344
04:00+1s23822 0.0 103248
07:00+1s23812 0.0 103250
10:00+9ene11504 0.0 1032956
13:00+11nne334671 0.0 10311559
16:00+10n3351100 0.0 1030742
19:00+7nnw2366100 0.0 1031156
22:00+3ssw1182100 0.0 103110
17 april, sat
sat1701:00+2s228486 0.0 103130
04:00+2s228560 0.0 103030
07:00+2s228056 0.0 103040
10:00+10se23505 0.0 10291015
13:00+13sse234121 0.0 10271586
16:00+13w134463 0.0 10251438
19:00+8wnw1371100 0.0 1026166
22:00+5s2679100 0.0 1026184
18 april, sun
sun1801:00+5s2682100 0.0 1025170
04:00+4s2490100 0.0 102593
07:00+6s3780100 0.0 1023498
10:00+8ssw3771100 0.0 1023637
13:00+7ssw3879100 0.3 1023564
16:00+8s3677100 0.1 1023590
19:00+8ssw2682100 0.2 1022426
22:00+8s2686100 0.4 1022288
19 april, mon
mon1901:00+7s2588100 0.6 1022177
04:00+7s2682100 0.0 1021271
07:00+7sse2479100 0.0 1020133
10:00+10s3565100 0.0 1019582
13:00+13sw2448100 0.0 10181271
16:00+13wsw3552100 0.0 10171432
19:00+8ssw3792100 0.8 1018391
22:00+7ssw2794100 1.3 1018310